| time (UTC) | temp C | wind direction | speed KPH | gust KPH | rain 1hr cm | rain 24hr cm | rain mn cm | humidity % | barometer mb |
| 20260508085130 | 22 | 132 | 0.0 | 0.0 | 0.00 | 0.28 | 0.25 | 97 | 1012.2 |
| 20260508084630 | 22 | 185 | 0.0 | 0.0 | 0.00 | 0.28 | 0.25 | 97 | 1012.2 |
| 20260508084555 | 22 | 0 | 0.0 | 0.0 | 0.00 | 0.28 | 0.25 | 96 | 1012.3 |
| 20260508084130 | 22 | 185 | 0.0 | 0.0 | 0.00 | 0.28 | 0.25 | 97 | 1012.3 |
| 20260508083629 | 22 | 185 | 0.0 | 0.0 | 0.00 | 0.28 | 0.25 | 97 | 1012.4 |
| 20260508083129 | 22 | 185 | 0.0 | 0.0 | 0.00 | 0.28 | 0.25 | 97 | 1012.1 |
| 20260508083052 | 22 | 0 | 0.0 | 0.0 | 0.00 | 0.28 | 0.25 | 96 | 1012.4 |
| 20260508082630 | 23 | 185 | 0.0 | 0.0 | 0.00 | 0.28 | 0.25 | 97 | 1012.3 |
| 20260508082129 | 23 | 185 | 0.0 | 0.0 | 0.00 | 0.28 | 0.25 | 97 | 1012.5 |
| 20260508081629 | 23 | 185 | 0.0 | 0.0 | 0.00 | 0.28 | 0.25 | 97 | 1012.6 |
| 20260508081556 | 22 | 0 | 0.0 | 0.0 | 0.00 | 0.28 | 0.25 | 96 | 1012.8 |
| 20260508081129 | 23 | 185 | 0.0 | 0.0 | 0.00 | 0.28 | 0.25 | 97 | 1012.9 |
| 20260508080628 | 23 | 185 | 0.0 | 0.0 | 0.00 | 0.28 | 0.25 | 97 | 1013.2 |
| 20260508080130 | 23 | 185 | 0.0 | 0.0 | 0.00 | 0.28 | 0.25 | 97 | 1013.3 |
| 20260508080049 | 22 | 0 | 0.0 | 0.0 | 0.00 | 0.28 | 0.25 | 97 | 1013.4 |
| 20260508075629 | 23 | 185 | 0.0 | 0.0 | 0.00 | 0.28 | 0.25 | 97 | 1013.3 |
| 20260508075129 | 23 | 185 | 0.0 | 0.0 | 0.00 | 0.28 | 0.25 | 97 | 1013.1 |
| 20260508074629 | 23 | 185 | 0.0 | 0.0 | 0.00 | 0.28 | 0.25 | 97 | 1013.1 |
| 20260508074550 | 22 | 0 | 0.0 | 0.0 | 0.00 | 0.28 | 0.25 | 96 | 1013.2 |
| 20260508074147 | 23 | 185 | 0.0 | 0.0 | 0.00 | 0.28 | 0.25 | 97 | 1012.8 |
| 20260508074135 | 23 | 185 | 0.0 | 0.0 | 0.00 | 0.28 | 0.25 | 97 | 1013.0 |
| 20260508073130 | 23 | 185 | 0.0 | 0.0 | 0.00 | 0.28 | 0.25 | 97 | 1012.7 |
| 20260508073048 | 22 | 0 | 0.0 | 0.0 | 0.00 | 0.28 | 0.25 | 96 | 1012.9 |
| 20260508072630 | 23 | 185 | 0.0 | 0.0 | 0.03 | 0.28 | 0.25 | 97 | 1012.5 |
| 20260508072131 | 23 | 185 | 0.0 | 0.0 | 0.03 | 0.28 | 0.25 | 97 | 1012.6 |
| 20260508071631 | 23 | 185 | 0.0 | 0.0 | 0.05 | 0.28 | 0.25 | 97 | 1012.5 |
| 20260508071553 | 22 | 0 | 0.0 | 0.0 | 0.05 | 0.28 | 0.25 | 96 | 1012.8 |
| 20260508071131 | 22 | 185 | 0.0 | 0.0 | 0.08 | 0.28 | 0.25 | 97 | 1013.0 |
| 20260508070629 | 22 | 185 | 0.0 | 0.0 | 0.10 | 0.28 | 0.25 | 97 | 1013.3 |
| 20260508070129 | 22 | 185 | 0.0 | 3.2 | 0.13 | 0.28 | 0.25 | 97 | 1013.5 |
| 20260508070054 | 22 | 0 | 0.0 | 1.6 | 0.13 | 0.28 | 0.25 | 96 | 1013.7 |
| 20260508065629 | 22 | 185 | 0.0 | 3.2 | 0.18 | 0.13 | 0.25 | 97 | 1013.7 |
| 20260508065129 | 22 | 33 | 0.0 | 1.6 | 0.18 | 0.13 | 0.25 | 97 | 1013.6 |
| 20260508064628 | 22 | 252 | 0.0 | 1.6 | 0.20 | 0.13 | 0.25 | 97 | 1013.5 |
| 20260508064606 | 22 | 0 | 0.0 | 1.6 | 0.20 | 0.28 | 0.25 | 96 | 1013.7 |
| 20260508064128 | 22 | 269 | 0.0 | 1.6 | 0.20 | 0.13 | 0.25 | 97 | 1013.5 |
| 20260508063628 | 22 | 296 | 0.0 | 1.6 | 0.20 | 0.13 | 0.25 | 97 | 1013.7 |
| 20260508063129 | 22 | 294 | 0.0 | 0.0 | 0.23 | 0.13 | 0.25 | 97 | 1013.9 |
| 20260508063048 | 22 | 0 | 0.0 | 0.0 | 0.23 | 0.28 | 0.25 | 96 | 1014.0 |
| 20260508062850 | 22 | 294 | 0.0 | 0.0 | 0.20 | 0.13 | 0.23 | 96 | 1014.0 |
| 20260508062623 | 22 | 294 | 0.0 | 0.0 | 0.20 | 0.13 | 0.23 | 96 | 1013.8 |
| 20260508061629 | 22 | 294 | 0.0 | 0.0 | 0.18 | 0.13 | 0.20 | 96 | 1013.5 |
| 20260508061557 | 22 | 0 | 0.0 | 0.0 | 0.18 | 0.23 | 0.20 | 96 | 1013.8 |
| 20260508061128 | 22 | 294 | 0.0 | 0.0 | 0.15 | 0.13 | 0.18 | 96 | 1013.9 |
| 20260508060629 | 22 | 294 | 0.0 | 0.0 | 0.15 | 0.13 | 0.15 | 96 | 1014.3 |
| 20260508060131 | 22 | 294 | 0.0 | 0.0 | 0.13 | 0.13 | 0.10 | 96 | 1014.8 |
| 20260508060050 | 22 | 0 | 0.0 | 0.0 | 0.10 | 0.13 | 0.10 | 96 | 1015.1 |
| 20260508055919 | 22 | 294 | 0.0 | 0.0 | 0.08 | 0.03 | 0.08 | 96 | 1015.2 |
| 20260508055131 | 22 | 294 | 0.0 | 0.0 | 0.08 | 0.03 | 0.05 | 96 | 1015.6 |
| 20260508054631 | 22 | 294 | 0.0 | 0.0 | 0.05 | 0.03 | 0.05 | 96 | 1015.9 |
| 20260508054617 | 22 | 0 | 0.0 | 0.0 | 0.05 | 0.08 | 0.05 | 96 | 1016.2 |
| 20260508054130 | 22 | 294 | 0.0 | 0.0 | 0.05 | 0.03 | 0.05 | 96 | 1016.1 |
| 20260508053629 | 22 | 294 | 0.0 | 0.0 | 0.05 | 0.03 | 0.05 | 96 | 1016.1 |
| 20260508053129 | 22 | 294 | 0.0 | 0.0 | 0.03 | 0.03 | 0.03 | 96 | 1016.0 |
| 20260508053050 | 22 | 0 | 0.0 | 0.0 | 0.03 | 0.05 | 0.03 | 96 | 1016.3 |
| 20260508052629 | 22 | 294 | 0.0 | 0.0 | 0.03 | 0.03 | 0.03 | 96 | 1015.8 |
| 20260508052129 | 22 | 294 | 0.0 | 0.0 | 0.03 | 0.03 | 0.03 | 96 | 1015.5 |
| 20260508051629 | 22 | 294 | 0.0 | 6.4 | 0.03 | 0.03 | 0.03 | 96 | 1014.9 |
| 20260508051600 | 22 | 0 | 0.0 | 4.8 | 0.03 | 0.05 | 0.03 | 95 | 1015.0 |
| 20260508051354 | 22 | 294 | 0.0 | 6.4 | 0.03 | 0.03 | 0.03 | 96 | 1014.4 |
| 20260508050629 | 22 | 309 | 1.6 | 6.4 | 0.00 | 0.03 | 0.00 | 96 | 1013.6 |
| 20260508050129 | 22 | 134 | 0.0 | 1.6 | 0.03 | 0.03 | 0.00 | 96 | 1013.7 |
| 20260508050054 | 21 | 0 | 0.0 | 3.2 | 0.03 | 0.03 | 0.00 | 95 | 1014.0 |
| 20260508045629 | 22 | 333 | 0.0 | 4.8 | 0.03 | 0.00 | 0.03 | 96 | 1014.1 |
| 20260508045129 | 22 | 44 | 0.0 | 4.8 | 0.03 | 0.00 | 0.03 | 96 | 1014.1 |
| 20260508044629 | 22 | 107 | 0.0 | 3.2 | 0.03 | 0.00 | 0.03 | 95 | 1014.3 |
| 20260508044552 | 21 | 0 | 0.0 | 3.2 | 0.03 | 0.03 | 0.03 | 95 | 1014.5 |
| 20260508044129 | 22 | 240 | 0.0 | 3.2 | 0.03 | 0.00 | 0.03 | 95 | 1014.3 |
| 20260508043628 | 22 | 148 | 0.0 | 4.8 | 0.03 | 0.00 | 0.03 | 95 | 1014.0 |
| 20260508043131 | 22 | 289 | 0.0 | 4.8 | 0.03 | 0.00 | 0.03 | 94 | 1013.6 |
| 20260508043056 | 21 | 249 | 0.0 | 4.8 | 0.03 | 0.03 | 0.03 | 94 | 1013.7 |
| 20260508042631 | 22 | 176 | 0.0 | 3.2 | 0.03 | 0.00 | 0.03 | 94 | 1013.5 |
| 20260508042130 | 22 | 77 | 0.0 | 0.0 | 0.03 | 0.00 | 0.03 | 94 | 1013.9 |
| 20260508041630 | 22 | 229 | 0.0 | 1.6 | 0.03 | 0.00 | 0.03 | 93 | 1014.0 |
| 20260508041551 | 22 | 0 | 0.0 | 1.6 | 0.03 | 0.03 | 0.03 | 93 | 1014.2 |
| 20260508041130 | 22 | 156 | 0.0 | 1.6 | 0.03 | 0.00 | 0.03 | 93 | 1013.9 |
| 20260508040629 | 22 | 27 | 0.0 | 0.0 | 0.03 | 0.00 | 0.03 | 92 | 1014.4 |
| 20260508040351 | 22 | 27 | 0.0 | 0.0 | 0.00 | 0.00 | 0.00 | 92 | 1014.6 |
| 20260508040055 | 22 | 0 | 0.0 | 3.2 | 0.00 | 0.00 | 0.00 | 91 | 1014.6 |
| 20260508035629 | 22 | 27 | 0.0 | 1.6 | 0.00 | 0.00 | 0.00 | 91 | 1014.3 |
| 20260508035129 | 22 | 27 | 0.0 | 1.6 | 0.00 | 0.00 | 0.00 | 91 | 1014.1 |
| 20260508034629 | 22 | 274 | 0.0 | 0.0 | 0.00 | 0.00 | 0.00 | 91 | 1014.1 |
| 20260508034549 | 22 | 0 | 0.0 | 1.6 | 0.00 | 0.00 | 0.00 | 90 | 1014.4 |
| 20260508034128 | 22 | 274 | 0.0 | 4.8 | 0.00 | 0.00 | 0.00 | 91 | 1014.3 |
| 20260508033629 | 22 | 86 | 0.0 | 4.8 | 0.00 | 0.00 | 0.00 | 90 | 1014.5 |
| 20260508033129 | 22 | 259 | 0.0 | 3.2 | 0.00 | 0.00 | 0.00 | 90 | 1014.4 |
| 20260508033048 | 22 | 0 | 0.0 | 3.2 | 0.00 | 0.00 | 0.00 | 90 | 1014.5 |
| 20260508032629 | 22 | 61 | 0.0 | 3.2 | 0.00 | 0.00 | 0.00 | 90 | 1014.3 |
| 20260508032129 | 22 | 268 | 0.0 | 3.2 | 0.00 | 0.00 | 0.00 | 90 | 1014.6 |
| 20260508032116 | 22 | 81 | 0.0 | 6.4 | 0.00 | 0.00 | 0.00 | 90 | 1014.6 |
| 20260508031556 | 22 | 0 | 0.0 | 6.4 | 0.00 | 0.00 | 0.00 | 90 | 1014.7 |
| 20260508031128 | 22 | 89 | 0.0 | 6.4 | 0.00 | 0.00 | 0.00 | 90 | 1014.2 |
| 20260508030628 | 22 | 276 | 0.0 | 4.8 | 0.00 | 0.00 | 0.00 | 90 | 1014.4 |
| 20260508030131 | 22 | 110 | 0.0 | 9.7 | 0.00 | 0.00 | 0.00 | 90 | 1014.3 |
| 20260508030052 | 22 | 0 | 0.0 | 8.0 | 0.00 | 0.00 | 0.00 | 89 | 1014.5 |
| 20260508025625 | 22 | 56 | 0.0 | 9.7 | 0.00 | 0.00 | 0.00 | 90 | 1014.0 |
| 20260508025125 | 22 | 252 | 0.0 | 9.7 | 0.00 | 0.00 | 0.00 | 90 | 1014.0 |
| 20260508024617 | 22 | 9 | 0.0 | 12.9 | 0.00 | 0.00 | 0.00 | 90 | 1013.9 |
| 20260508024544 | 22 | 0 | 0.0 | 17.7 | 0.00 | 0.00 | 0.00 | 89 | 1014.0 |
| 20260508024104 | 22 | 117 | 1.6 | 12.9 | 0.00 | 0.00 | 0.00 | 90 | 1013.7 |
| 20260508023604 | 22 | 143 | 0.0 | 9.7 | 0.00 | 0.00 | 0.00 | 90 | 1013.7 |
| 20260508023103 | 22 | 188 | 0.0 | 9.7 | 0.00 | 0.00 | 0.00 | 89 | 1013.8 |
| 20260508023050 | 22 | 0 | 0.0 | 9.7 | 0.00 | 0.00 | 0.00 | 89 | 1014.0 |
| 20260508022603 | 22 | 38 | 0.0 | 6.4 | 0.00 | 0.00 | 0.00 | 89 | 1014.1 |
| 20260508022103 | 22 | 231 | 0.0 | 8.0 | 0.00 | 0.00 | 0.00 | 88 | 1014.0 |
| 20260508021603 | 22 | 187 | 0.0 | 8.0 | 0.00 | 0.00 | 0.00 | 88 | 1014.1 |
| 20260508021559 | 22 | 0 | 0.0 | 8.0 | 0.00 | 0.00 | 0.00 | 87 | 1014.3 |
| 20260508021102 | 22 | 321 | 0.0 | 6.4 | 0.00 | 0.00 | 0.00 | 87 | 1014.0 |
| 20260508020602 | 22 | 65 | 0.0 | 4.8 | 0.00 | 0.00 | 0.00 | 87 | 1013.9 |
| 20260508020048 | 22 | 0 | 0.0 | 3.2 | 0.00 | 0.00 | 0.00 | 86 | 1014.3 |
| 20260508015603 | 22 | 278 | 0.0 | 3.2 | 0.00 | 0.00 | 0.00 | 87 | 1013.9 |
| 20260508015102 | 23 | 4 | 0.0 | 4.8 | 0.00 | 0.00 | 0.00 | 87 | 1013.7 |
| 20260508014602 | 23 | 4 | 0.0 | 14.5 | 0.00 | 0.00 | 0.00 | 87 | 1013.6 |
| 20260508014548 | 22 | 0 | 0.0 | 14.5 | 0.00 | 0.00 | 0.00 | 86 | 1013.8 |
| 20260508014325 | 23 | 333 | 0.0 | 14.5 | 0.00 | 0.00 | 0.00 | 87 | 1013.5 |
| 20260508013602 | 23 | 96 | 1.6 | 9.7 | 0.00 | 0.00 | 0.00 | 87 | 1013.6 |
| 20260508013102 | 23 | 252 | 0.0 | 12.9 | 0.00 | 0.00 | 0.00 | 87 | 1013.6 |
| 20260508013050 | 22 | 0 | 0.0 | 12.9 | 0.00 | 0.00 | 0.00 | 86 | 1013.8 |
| 20260508012612 | 23 | 347 | 0.0 | 11.3 | 0.00 | 0.00 | 0.00 | 87 | 1013.4 |
| 20260508012603 | 23 | 243 | 0.0 | 12.9 | 0.00 | 0.00 | 0.00 | 87 | 1013.5 |
| 20260508011602 | 23 | 212 | 0.0 | 11.3 | 0.00 | 0.00 | 0.00 | 86 | 1013.4 |
| 20260508011554 | 23 | 15 | 0.0 | 8.0 | 0.00 | 0.00 | 0.00 | 86 | 1013.6 |
| 20260508011102 | 23 | 307 | 0.0 | 9.7 | 0.00 | 0.00 | 0.00 | 86 | 1013.5 |
| 20260508010601 | 23 | 113 | 1.6 | 9.7 | 0.00 | 0.00 | 0.00 | 85 | 1013.3 |
| 20260508010351 | 23 | 235 | 0.0 | 11.3 | 0.00 | 0.00 | 0.00 | 85 | 1013.0 |
| 20260508010049 | 23 | 0 | 0.0 | 9.7 | 0.00 | 0.00 | 0.00 | 85 | 1013.3 |
| 20260508005601 | 23 | 248 | 0.0 | 11.3 | 0.00 | 0.00 | 0.00 | 85 | 1012.8 |
| 20260508005101 | 23 | 110 | 0.0 | 9.7 | 0.00 | 0.00 | 0.00 | 85 | 1012.6 |
| 20260508004601 | 23 | 21 | 0.0 | 9.7 | 0.00 | 0.00 | 0.00 | 85 | 1012.7 |
| 20260508004550 | 23 | 0 | 0.0 | 3.2 | 0.00 | 0.00 | 0.00 | 84 | 1012.9 |
| 20260508004101 | 23 | 70 | 0.0 | 9.7 | 0.00 | 0.00 | 0.00 | 85 | 1012.8 |
| 20260508003601 | 23 | 221 | 0.0 | 11.3 | 0.00 | 0.00 | 0.00 | 85 | 1012.6 |
| 20260508003101 | 23 | 273 | 0.0 | 11.3 | 0.00 | 0.00 | 0.00 | 84 | 1012.7 |
| 20260508003049 | 23 | 167 | 0.0 | 9.7 | 0.00 | 0.00 | 0.00 | 83 | 1012.9 |
| 20260508002603 | 23 | 126 | 0.0 | 8.0 | 0.00 | 0.00 | 0.00 | 83 | 1013.0 |
| 20260508002102 | 24 | 124 | 0.0 | 8.0 | 0.00 | 0.00 | 0.00 | 83 | 1013.0 |
| 20260508001818 | 24 | 156 | 0.0 | 0.0 | 0.00 | 0.00 | 0.00 | 83 | 1013.1 |
| 20260508001547 | 23 | 0 | 0.0 | 3.2 | 0.00 | 0.00 | 0.00 | 82 | 1013.3 |
| 20260508001047 | 24 | 84 | 0.0 | 3.2 | 0.00 | 0.00 | 0.00 | 83 | 1013.1 |
| 20260508000538 | 24 | 322 | 0.0 | 9.7 | 0.00 | 0.00 | 0.00 | 83 | 1012.8 |
| 20260508000105 | 23 | 0 | 0.0 | 14.5 | 0.00 | 0.00 | 0.00 | 82 | 1012.9 |
| 20260508000035 | 24 | 224 | 1.6 | 9.7 | 0.00 | 0.00 | 0.00 | 82 | 1012.7 |
| 20260507235536 | 24 | 288 | 1.6 | 9.7 | 0.00 | 0.00 | 0.00 | 82 | 1012.6 |
| 20260507235034 | 24 | 289 | 0.0 | 9.7 | 0.00 | 0.00 | 0.00 | 82 | 1012.3 |
| 20260507234550 | 24 | 342 | 0.0 | 9.7 | 0.00 | 0.00 | 0.00 | 80 | 1012.5 |
| 20260507234534 | 25 | 176 | 0.0 | 9.7 | 0.00 | 0.00 | 0.00 | 81 | 1012.3 |
| 20260507234035 | 25 | 331 | 0.0 | 4.8 | 0.00 | 0.00 | 0.00 | 80 | 1012.4 |
| 20260507233535 | 25 | 70 | 0.0 | 4.8 | 0.00 | 0.00 | 0.00 | 80 | 1012.2 |
| 20260507233051 | 25 | 0 | 0.0 | 9.7 | 0.00 | 0.00 | 0.00 | 80 | 1012.3 |
| 20260507233033 | 25 | 89 | 0.0 | 6.4 | 0.00 | 0.00 | 0.00 | 81 | 1012.1 |
| 20260507232535 | 25 | 89 | 1.6 | 8.0 | 0.00 | 0.00 | 0.00 | 80 | 1012.2 |
| 20260507232036 | 25 | 293 | 0.0 | 9.7 | 0.00 | 0.00 | 0.00 | 80 | 1012.1 |
| 20260507231558 | 25 | 0 | 0.0 | 11.3 | 0.00 | 0.00 | 0.00 | 80 | 1012.2 |
| 20260507231536 | 25 | 219 | 0.0 | 11.3 | 0.00 | 0.00 | 0.00 | 80 | 1012.0 |
| 20260507231035 | 25 | 207 | 0.0 | 11.3 | 0.00 | 0.00 | 0.00 | 80 | 1012.0 |
| 20260507230535 | 25 | 272 | 0.0 | 3.2 | 0.00 | 0.00 | 0.00 | 80 | 1012.0 |
| 20260507230051 | 25 | 0 | 0.0 | 4.8 | 0.00 | 0.00 | 0.00 | 79 | 1012.3 |
| 20260507230035 | 25 | 3 | 0.0 | 3.2 | 0.00 | 0.00 | 0.00 | 80 | 1012.1 |
| 20260507225534 | 25 | 322 | 0.0 | 3.2 | 0.00 | 0.00 | 0.00 | 80 | 1012.1 |
| 20260507225016 | 25 | 59 | 0.0 | 4.8 | 0.00 | 0.00 | 0.00 | 80 | 1012.3 |
| 20260507224551 | 25 | 0 | 0.0 | 4.8 | 0.00 | 0.00 | 0.00 | 79 | 1012.7 |
| 20260507224510 | 25 | 166 | 0.0 | 4.8 | 0.00 | 0.00 | 0.00 | 79 | 1012.4 |
| 20260507224004 | 25 | 316 | 0.0 | 6.4 | 0.00 | 0.00 | 0.00 | 79 | 1012.7 |
| 20260507223740 | 25 | 243 | 0.0 | 6.4 | 0.00 | 0.00 | 0.00 | 79 | 1012.5 |
| 20260507223048 | 25 | 0 | 0.0 | 12.9 | 0.00 | 0.00 | 0.00 | 79 | 1012.7 |
| 20260507223004 | 25 | 127 | 0.0 | 11.3 | 0.00 | 0.00 | 0.00 | 79 | 1012.5 |
| 20260507222723 | 25 | 37 | 0.0 | 11.3 | 0.00 | 0.00 | 0.00 | 79 | 1012.6 |
| 20260507222003 | 26 | 252 | 1.6 | 8.0 | 0.00 | 0.00 | 0.00 | 78 | 1012.6 |
| 20260507221558 | 26 | 0 | 0.0 | 9.7 | 0.00 | 0.00 | 0.00 | 78 | 1012.8 |
| 20260507221502 | 26 | 267 | 1.6 | 8.0 | 0.00 | 0.00 | 0.00 | 78 | 1012.6 |
| 20260507221000 | 26 | 327 | 0.0 | 8.0 | 0.00 | 0.00 | 0.00 | 78 | 1012.5 |
| 20260507220501 | 26 | 138 | 0.0 | 6.4 | 0.00 | 0.00 | 0.00 | 78 | 1012.5 |
| 20260507220053 | 26 | 251 | 0.0 | 8.0 | 0.00 | 0.00 | 0.00 | 77 | 1012.8 |
| 20260507220000 | 26 | 253 | 0.0 | 8.0 | 0.00 | 0.00 | 0.00 | 77 | 1012.6 |
| 20260507215500 | 26 | 126 | 1.6 | 8.0 | 0.00 | 0.00 | 0.00 | 77 | 1012.6 |
| 20260507215003 | 27 | 283 | 0.0 | 6.4 | 0.00 | 0.00 | 0.00 | 76 | 1012.6 |
| 20260507214554 | 26 | 0 | 0.0 | 4.8 | 0.00 | 0.00 | 0.00 | 75 | 1012.9 |
| 20260507214503 | 27 | 328 | 1.6 | 6.4 | 0.00 | 0.00 | 0.00 | 75 | 1012.7 |
| 20260507214003 | 27 | 345 | 0.0 | 4.8 | 0.00 | 0.00 | 0.00 | 76 | 1012.8 |
| 20260507213502 | 27 | 305 | 0.0 | 6.4 | 0.00 | 0.00 | 0.00 | 74 | 1012.8 |
| 20260507213048 | 27 | 0 | 0.0 | 16.1 | 0.00 | 0.00 | 0.00 | 73 | 1012.8 |
| 20260507213002 | 27 | 27 | 0.0 | 12.9 | 0.00 | 0.00 | 0.00 | 74 | 1012.5 |
| 20260507212502 | 27 | 169 | 0.0 | 12.9 | 0.00 | 0.00 | 0.00 | 74 | 1012.5 |
| 20260507212003 | 27 | 25 | 0.0 | 8.0 | 0.00 | 0.00 | 0.00 | 74 | 1012.3 |
| 20260507211724 | 27 | 319 | 0.0 | 12.9 | 0.00 | 0.00 | 0.00 | 75 | 1012.4 |
| 20260507211558 | 27 | 0 | 0.0 | 12.9 | 0.00 | 0.00 | 0.00 | 75 | 1012.6 |
| 20260507211003 | 27 | 188 | 1.6 | 12.9 | 0.00 | 0.00 | 0.00 | 74 | 1012.3 |
| 20260507210515 | 27 | 144 | 1.6 | 11.3 | 0.00 | 0.00 | 0.00 | 74 | 1012.4 |
| 20260507210051 | 27 | 0 | 0.0 | 11.3 | 0.00 | 0.00 | 0.00 | 73 | 1012.5 |
| 20260507210000 | 28 | 265 | 1.6 | 9.7 | 0.00 | 0.00 | 0.00 | 74 | 1012.4 |
| 20260507205500 | 28 | 137 | 1.6 | 9.7 | 0.00 | 0.00 | 0.00 | 74 | 1012.4 |
| 20260507205002 | 27 | 181 | 3.2 | 9.7 | 0.00 | 0.00 | 0.00 | 73 | 1012.6 |
| 20260507204553 | 28 | 243 | 0.0 | 11.3 | 0.00 | 0.00 | 0.00 | 72 | 1012.8 |
| 20260507204501 | 28 | 46 | 0.0 | 12.9 | 0.00 | 0.00 | 0.00 | 73 | 1012.7 |
| 20260507204001 | 28 | 290 | 0.0 | 12.9 | 0.00 | 0.00 | 0.00 | 74 | 1012.9 |
| 20260507203756 | 28 | 149 | 0.0 | 9.7 | 0.00 | 0.00 | 0.00 | 74 | 1012.9 |
| 20260507203055 | 27 | 0 | 1.6 | 11.3 | 0.00 | 0.00 | 0.00 | 73 | 1013.2 |
| 20260507203001 | 28 | 215 | 1.6 | 12.9 | 0.00 | 0.00 | 0.00 | 74 | 1013.1 |
| 20260507202500 | 28 | 91 | 0.0 | 12.9 | 0.00 | 0.00 | 0.00 | 73 | 1013.1 |
| 20260507202002 | 28 | 239 | 0.0 | 11.3 | 0.00 | 0.00 | 0.00 | 74 | 1013.2 |
| 20260507201556 | 27 | 0 | 0.0 | 12.9 | 0.00 | 0.00 | 0.00 | 75 | 1013.5 |
| 20260507201503 | 27 | 219 | 1.6 | 11.3 | 0.00 | 0.00 | 0.00 | 75 | 1013.3 |
| 20260507201015 | 27 | 233 | 0.0 | 11.3 | 0.00 | 0.00 | 0.00 | 75 | 1013.5 |
| 20260507200516 | 27 | 171 | 1.6 | 11.3 | 0.00 | 0.00 | 0.00 | 75 | 1013.6 |
| 20260507200231 | 27 | 160 | 0.0 | 8.0 | 0.00 | 0.00 | 0.00 | 75 | 1013.5 |
| 20260507200053 | 27 | 0 | 0.0 | 8.0 | 0.00 | 0.00 | 0.00 | 75 | 1013.7 |
| 20260507195501 | 27 | 184 | 0.0 | 8.0 | 0.00 | 0.00 | 0.00 | 75 | 1013.6 |
| 20260507195001 | 27 | 271 | 0.0 | 9.7 | 0.00 | 0.00 | 0.00 | 77 | 1013.6 |
| 20260507194551 | 27 | 0 | 0.0 | 14.5 | 0.00 | 0.00 | 0.00 | 76 | 1013.9 |
| 20260507194502 | 27 | 181 | 0.0 | 9.7 | 0.00 | 0.00 | 0.00 | 77 | 1013.7 |
| 20260507194001 | 27 | 79 | 0.0 | 16.1 | 0.00 | 0.00 | 0.00 | 77 | 1013.7 |
| 20260507193501 | 27 | 129 | 0.0 | 16.1 | 0.00 | 0.00 | 0.00 | 78 | 1013.8 |
| 20260507193058 | 26 | 0 | 0.0 | 11.3 | 0.00 | 0.00 | 0.00 | 77 | 1014.2 |
| 20260507193001 | 27 | 346 | 0.0 | 11.3 | 0.00 | 0.00 | 0.00 | 77 | 1014.0 |
| 20260507192500 | 27 | 296 | 0.0 | 3.2 | 0.00 | 0.00 | 0.00 | 77 | 1014.1 |
| 20260507191959 | 27 | 231 | 0.0 | 6.4 | 0.00 | 0.00 | 0.00 | 76 | 1014.0 |
| 20260507191723 | 27 | 295 | 0.0 | 6.4 | 0.00 | 0.00 | 0.00 | 77 | 1014.1 |
| 20260507191552 | 27 | 0 | 0.0 | 6.4 | 0.00 | 0.00 | 0.00 | 77 | 1014.2 |
| 20260507190957 | 27 | 311 | 0.0 | 6.4 | 0.00 | 0.00 | 0.00 | 76 | 1014.0 |
| 20260507190456 | 27 | 242 | 0.0 | 8.0 | 0.00 | 0.00 | 0.00 | 77 | 1014.2 |
| 20260507190047 | 27 | 0 | 1.6 | 11.3 | 0.00 | 0.00 | 0.00 | 77 | 1014.4 |
| 20260507185956 | 27 | 105 | 3.2 | 9.7 | 0.00 | 0.00 | 0.00 | 77 | 1014.3 |
| 20260507185455 | 27 | 3 | 0.0 | 9.7 | 0.00 | 0.00 | 0.00 | 76 | 1014.3 |
| 20260507184956 | 27 | 221 | 0.0 | 9.7 | 0.00 | 0.00 | 0.00 | 77 | 1014.3 |
| 20260507184550 | 26 | 0 | 0.0 | 11.3 | 0.00 | 0.00 | 0.00 | 77 | 1014.5 |
| 20260507184449 | 27 | 25 | 0.0 | 11.3 | 0.00 | 0.00 | 0.00 | 79 | 1014.3 |
| 20260507183948 | 26 | 162 | 3.2 | 12.9 | 0.00 | 0.00 | 0.00 | 78 | 1014.4 |
| 20260507183447 | 26 | 191 | 0.0 | 12.9 | 0.00 | 0.00 | 0.00 | 79 | 1014.3 |
| 20260507183100 | 26 | 0 | 0.0 | 6.4 | 0.00 | 0.00 | 0.00 | 80 | 1014.7 |
| 20260507182940 | 26 | 212 | 0.0 | 6.4 | 0.00 | 0.00 | 0.00 | 80 | 1014.6 |
| 20260507182439 | 25 | 331 | 0.0 | 8.0 | 0.00 | 0.00 | 0.00 | 82 | 1014.9 |
| 20260507181940 | 25 | 194 | 0.0 | 12.9 | 0.00 | 0.00 | 0.00 | 81 | 1014.9 |
| 20260507181931 | 25 | 260 | 0.0 | 12.9 | 0.00 | 0.00 | 0.00 | 82 | 1014.9 |
| 20260507181553 | 25 | 184 | 0.0 | 11.3 | 0.00 | 0.00 | 0.00 | 82 | 1015.2 |
| 20260507180938 | 25 | 296 | 0.0 | 9.7 | 0.00 | 0.00 | 0.00 | 82 | 1014.9 |
| 20260507180433 | 25 | 191 | 0.0 | 9.7 | 0.00 | 0.00 | 0.00 | 83 | 1015.0 |
| 20260507180105 | 25 | 0 | 0.0 | 9.7 | 0.00 | 0.00 | 0.00 | 82 | 1015.3 |
| 20260507175933 | 25 | 257 | 1.6 | 9.7 | 0.00 | 0.00 | 0.00 | 83 | 1015.0 |
| 20260507175655 | 25 | 124 | 0.0 | 8.0 | 0.00 | 0.00 | 0.00 | 83 | 1015.1 |
| 20260507174931 | 25 | 124 | 0.0 | 6.4 | 0.00 | 0.00 | 0.00 | 83 | 1015.2 |
| 20260507174617 | 25 | 0 | 0.0 | 4.8 | 0.00 | 0.00 | 0.00 | 82 | 1015.3 |
| 20260507174431 | 25 | 40 | 0.0 | 6.4 | 0.00 | 0.00 | 0.00 | 83 | 1015.2 |
| 20260507173925 | 25 | 84 | 0.0 | 9.7 | 0.00 | 0.00 | 0.00 | 82 | 1015.3 |
| 20260507173424 | 25 | 252 | 0.0 | 9.7 | 0.00 | 0.00 | 0.00 | 82 | 1015.2 |
| 20260507173048 | 25 | 0 | 0.0 | 8.0 | 0.00 | 0.00 | 0.00 | 81 | 1015.5 |
| 20260507172917 | 25 | 198 | 0.0 | 4.8 | 0.00 | 0.00 | 0.00 | 82 | 1015.1 |
| 20260507172418 | 26 | 73 | 0.0 | 6.4 | 0.00 | 0.00 | 0.00 | 81 | 1015.1 |
| 20260507171903 | 26 | 325 | 0.0 | 11.3 | 0.00 | 0.00 | 0.00 | 81 | 1015.3 |
| 20260507171609 | 25 | 325 | 1.6 | 14.5 | 0.00 | 0.00 | 0.00 | 80 | 1015.4 |
| 20260507171402 | 26 | 118 | 1.6 | 16.1 | 0.00 | 0.00 | 0.00 | 81 | 1015.2 |
| 20260507170902 | 26 | 117 | 0.0 | 16.1 | 0.00 | 0.00 | 0.00 | 80 | 1015.1 |
| 20260507170402 | 26 | 259 | 0.0 | 6.4 | 0.00 | 0.00 | 0.00 | 81 | 1015.0 |
| 20260507170052 | 25 | 0 | 0.0 | 12.9 | 0.00 | 0.00 | 0.00 | 81 | 1015.4 |
| 20260507165902 | 26 | 89 | 0.0 | 12.9 | 0.00 | 0.00 | 0.00 | 81 | 1015.3 |
| 20260507165400 | 26 | 242 | 0.0 | 12.9 | 0.00 | 0.00 | 0.00 | 81 | 1015.3 |
| 20260507164901 | 26 | 15 | 0.0 | 9.7 | 0.00 | 0.00 | 0.00 | 81 | 1015.3 |
| 20260507164556 | 25 | 0 | 0.0 | 9.7 | 0.00 | 0.00 | 0.00 | 80 | 1015.4 |
| 20260507164401 | 25 | 213 | 0.0 | 6.4 | 0.00 | 0.00 | 0.00 | 82 | 1015.2 |
| 20260507163901 | 25 | 125 | 0.0 | 1.6 | 0.00 | 0.00 | 0.00 | 82 | 1015.2 |
| 20260507163400 | 25 | 125 | 0.0 | 1.6 | 0.00 | 0.00 | 0.00 | 83 | 1015.2 |
| 20260507163059 | 25 | 0 | 0.0 | 6.4 | 0.00 | 0.00 | 0.00 | 83 | 1015.4 |
| 20260507162902 | 25 | 222 | 0.0 | 4.8 | 0.00 | 0.00 | 0.00 | 83 | 1015.3 |
| 20260507162400 | 25 | 118 | 0.0 | 4.8 | 0.00 | 0.00 | 0.00 | 83 | 1015.2 |
| 20260507161901 | 25 | 301 | 0.0 | 4.8 | 0.00 | 0.00 | 0.00 | 84 | 1015.1 |
| 20260507161555 | 24 | 0 | 0.0 | 3.2 | 0.00 | 0.00 | 0.00 | 84 | 1015.3 |
| 20260507161401 | 24 | 6 | 0.0 | 4.8 | 0.00 | 0.00 | 0.00 | 84 | 1015.1 |
| 20260507160901 | 24 | 173 | 0.0 | 8.0 | 0.00 | 0.00 | 0.00 | 85 | 1015.1 |
| 20260507160400 | 23 | 173 | 0.0 | 8.0 | 0.00 | 0.00 | 0.00 | 86 | 1015.1 |
| 20260507160112 | 23 | 9 | 0.0 | 8.0 | 0.00 | 0.00 | 0.00 | 85 | 1015.3 |
| 20260507155900 | 23 | 22 | 0.0 | 6.4 | 0.00 | 0.00 | 0.00 | 86 | 1015.1 |
| 20260507155400 | 23 | 39 | 0.0 | 3.2 | 0.00 | 0.00 | 0.00 | 86 | 1015.2 |
| 20260507154900 | 23 | 288 | 0.0 | 3.2 | 0.00 | 0.00 | 0.00 | 86 | 1015.1 |
| 20260507154626 | 23 | 287 | 0.0 | 1.6 | 0.00 | 0.00 | 0.00 | 86 | 1015.1 |
| 20260507154555 | 23 | 0 | 0.0 | 1.6 | 0.00 | 0.00 | 0.00 | 86 | 1015.2 |
| 20260507153903 | 23 | 334 | 0.0 | 4.8 | 0.00 | 0.00 | 0.00 | 87 | 1015.1 |
| 20260507153402 | 23 | 248 | 0.0 | 4.8 | 0.00 | 0.00 | 0.00 | 87 | 1015.0 |
| 20260507153055 | 23 | 0 | 0.0 | 0.0 | 0.00 | 0.00 | 0.00 | 87 | 1015.2 |
| 20260507152902 | 23 | 202 | 0.0 | 0.0 | 0.00 | 0.00 | 0.00 | 87 | 1014.9 |
| 20260507152402 | 23 | 202 | 0.0 | 0.0 | 0.00 | 0.00 | 0.00 | 88 | 1015.0 |
| 20260507151901 | 23 | 295 | 0.0 | 4.8 | 0.00 | 0.00 | 0.00 | 88 | 1014.9 |
| 20260507151558 | 23 | 0 | 0.0 | 3.2 | 0.00 | 0.00 | 0.00 | 88 | 1015.0 |
| 20260507151401 | 23 | 295 | 0.0 | 4.8 | 0.00 | 0.00 | 0.00 | 89 | 1014.9 |
| 20260507151122 | 23 | 190 | 0.0 | 0.0 | 0.00 | 0.00 | 0.00 | 89 | 1014.8 |
| 20260507150401 | 23 | 190 | 0.0 | 0.0 | 0.00 | 0.00 | 0.00 | 89 | 1014.8 |
| 20260507150053 | 23 | 0 | 0.0 | 1.6 | 0.00 | 0.00 | 0.00 | 88 | 1015.0 |
| 20260507145901 | 23 | 190 | 0.0 | 0.0 | 0.00 | 0.00 | 0.00 | 89 | 1014.8 |
| 20260507145400 | 23 | 190 | 0.0 | 1.6 | 0.00 | 0.00 | 0.00 | 89 | 1014.7 |
| 20260507144900 | 23 | 190 | 0.0 | 1.6 | 0.00 | 0.00 | 0.00 | 90 | 1014.7 |
| 20260507144548 | 23 | 0 | 0.0 | 8.0 | 0.00 | 0.00 | 0.00 | 89 | 1014.8 |
| 20260507144401 | 23 | 158 | 0.0 | 6.4 | 0.00 | 0.00 | 0.00 | 90 | 1014.7 |
| 20260507143902 | 23 | 176 | 0.0 | 6.4 | 0.00 | 0.00 | 0.00 | 90 | 1014.5 |
| 20260507143402 | 23 | 15 | 0.0 | 4.8 | 0.00 | 0.00 | 0.00 | 90 | 1014.4 |
| 20260507143105 | 23 | 0 | 0.0 | 4.8 | 0.00 | 0.00 | 0.00 | 90 | 1014.6 |
| 20260507142902 | 23 | 219 | 0.0 | 4.8 | 0.00 | 0.00 | 0.00 | 90 | 1014.5 |
| 20260507142627 | 23 | 18 | 0.0 | 0.0 | 0.00 | 0.00 | 0.00 | 90 | 1014.4 |
| 20260507142125 | 23 | 18 | 0.0 | 0.0 | 0.00 | 0.00 | 0.00 | 89 | 1014.4 |
| 20260507141849 | 23 | 18 | 0.0 | 1.6 | 0.00 | 0.00 | 0.00 | 89 | 1014.5 |
| 20260507141633 | 23 | 0 | 0.0 | 1.6 | 0.00 | 0.00 | 0.00 | 89 | 1014.6 |
| 20260507140903 | 23 | 18 | 0.0 | 3.2 | 0.00 | 0.00 | 0.00 | 89 | 1014.3 |
| 20260507140630 | 23 | 139 | 0.0 | 3.2 | 0.00 | 0.00 | 0.00 | 89 | 1014.2 |
| 20260507140110 | 23 | 0 | 0.0 | 1.6 | 0.00 | 0.00 | 0.00 | 88 | 1014.4 |
| 20260507135902 | 24 | 147 | 0.0 | 0.0 | 0.00 | 0.00 | 0.00 | 89 | 1014.2 |
| 20260507135624 | 24 | 147 | 0.0 | 0.0 | 0.00 | 0.00 | 0.00 | 89 | 1014.1 |
| 20260507134900 | 24 | 147 | 0.0 | 0.0 | 0.00 | 0.00 | 0.00 | 89 | 1013.9 |
| 20260507134629 | 24 | 147 | 0.0 | 0.0 | 0.00 | 0.00 | 0.00 | 89 | 1013.8 |
| 20260507134555 | 23 | 0 | 0.0 | 0.0 | 0.00 | 0.00 | 0.00 | 88 | 1014.0 |
| 20260507133901 | 24 | 147 | 0.0 | 0.0 | 0.00 | 0.00 | 0.00 | 88 | 1013.7 |
| 20260507133401 | 24 | 189 | 0.0 | 0.0 | 0.00 | 0.00 | 0.00 | 88 | 1013.5 |
| 20260507133125 | 24 | 189 | 0.0 | 0.0 | 0.00 | 0.00 | 0.00 | 88 | 1013.4 |
| 20260507133103 | 24 | 0 | 0.0 | 0.0 | 0.00 | 0.00 | 0.00 | 87 | 1013.7 |
| 20260507132401 | 25 | 293 | 0.0 | 3.2 | 0.00 | 0.00 | 0.00 | 87 | 1013.3 |
| 20260507131900 | 25 | 293 | 0.0 | 4.8 | 0.00 | 0.00 | 0.00 | 85 | 1013.1 |
| 20260507131612 | 25 | 0 | 0.0 | 4.8 | 0.00 | 0.00 | 0.00 | 84 | 1013.4 |
| 20260507131401 | 26 | 342 | 0.0 | 4.8 | 0.00 | 0.00 | 0.00 | 84 | 1013.1 |
| 20260507130901 | 27 | 9 | 0.0 | 0.0 | 0.00 | 0.00 | 0.00 | 88 | 1012.9 |
| 20260507130401 | 27 | 9 | 0.0 | 0.0 | 0.00 | 0.00 | 0.00 | 89 | 1012.8 |
| 20260507130106 | 26 | 0 | 0.0 | 1.6 | 0.00 | 0.00 | 0.00 | 88 | 1012.9 |
| 20260507125900 | 27 | 9 | 0.0 | 0.0 | 0.00 | 0.00 | 0.00 | 89 | 1012.6 |
| 20260507125402 | 27 | 315 | 0.0 | 0.0 | 0.00 | 0.00 | 0.00 | 89 | 1012.4 |
| 20260507124900 | 27 | 315 | 0.0 | 0.0 | 0.00 | 0.00 | 0.00 | 89 | 1012.6 |
| 20260507124601 | 26 | 0 | 0.0 | 0.0 | 0.00 | 0.00 | 0.00 | 89 | 1012.7 |
| 20260507124402 | 26 | 315 | 0.0 | 1.6 | 0.00 | 0.00 | 0.00 | 89 | 1012.5 |
| 20260507123901 | 26 | 315 | 0.0 | 1.6 | 0.00 | 0.00 | 0.00 | 89 | 1012.4 |
| 20260507123403 | 26 | 281 | 0.0 | 0.0 | 0.00 | 0.00 | 0.00 | 90 | 1012.3 |
| 20260507123051 | 26 | 0 | 0.0 | 0.0 | 0.00 | 0.00 | 0.00 | 89 | 1012.6 |
| 20260507122902 | 27 | 281 | 0.0 | 0.0 | 0.00 | 0.00 | 0.00 | 89 | 1012.4 |
| 20260507122402 | 27 | 281 | 0.0 | 0.0 | 0.00 | 0.00 | 0.00 | 89 | 1012.4 |
| 20260507121901 | 27 | 281 | 0.0 | 0.0 | 0.00 | 0.00 | 0.00 | 89 | 1012.2 |
| 20260507121556 | 26 | 0 | 0.0 | 0.0 | 0.00 | 0.00 | 0.00 | 89 | 1012.4 |
| 20260507121401 | 27 | 281 | 0.0 | 0.0 | 0.00 | 0.00 | 0.00 | 89 | 1012.2 |
| 20260507121125 | 27 | 281 | 0.0 | 0.0 | 0.00 | 0.00 | 0.00 | 89 | 1012.3 |
| 20260507120401 | 27 | 281 | 0.0 | 0.0 | 0.00 | 0.00 | 0.00 | 89 | 1012.3 |
| 20260507120058 | 26 | 0 | 0.0 | 0.0 | 0.00 | 0.00 | 0.00 | 88 | 1012.4 |
| 20260507115902 | 27 | 281 | 0.0 | 0.0 | 0.00 | 0.00 | 0.00 | 89 | 1012.3 |
| 20260507115402 | 27 | 281 | 0.0 | 0.0 | 0.00 | 0.00 | 0.00 | 89 | 1012.0 |
| 20260507114901 | 27 | 281 | 0.0 | 0.0 | 0.00 | 0.00 | 0.00 | 89 | 1012.0 |
| 20260507114552 | 26 | 0 | 0.0 | 0.0 | 0.00 | 0.00 | 0.00 | 88 | 1012.2 |
| 20260507114402 | 27 | 281 | 0.0 | 0.0 | 0.00 | 0.00 | 0.00 | 89 | 1012.0 |
| 20260507113901 | 27 | 281 | 0.0 | 0.0 | 0.00 | 0.00 | 0.00 | 89 | 1011.9 |
| 20260507113843 | 27 | 281 | 0.0 | 0.0 | 0.00 | 0.00 | 0.00 | 89 | 1011.9 |
| 20260507113122 | 27 | 0 | 0.0 | 0.0 | 0.00 | 0.00 | 0.00 | 88 | 1011.8 |
| 20260507112903 | 27 | 281 | 0.0 | 0.0 | 0.00 | 0.00 | 0.00 | 89 | 1011.7 |
| 20260507112403 | 27 | 281 | 0.0 | 0.0 | 0.00 | 0.00 | 0.00 | 89 | 1011.7 |
| 20260507112123 | 27 | 281 | 0.0 | 0.0 | 0.00 | 0.00 | 0.00 | 89 | 1011.8 |
| 20260507111557 | 27 | 0 | 0.0 | 0.0 | 0.00 | 0.00 | 0.00 | 88 | 1012.1 |
| 20260507111402 | 27 | 281 | 0.0 | 0.0 | 0.00 | 0.00 | 0.00 | 89 | 1011.8 |
| 20260507110901 | 27 | 281 | 0.0 | 0.0 | 0.00 | 0.00 | 0.00 | 89 | 1011.3 |
| 20260507110401 | 27 | 281 | 0.0 | 0.0 | 0.00 | 0.00 | 0.00 | 89 | 1011.1 |
| 20260507110055 | 27 | 0 | 0.0 | 0.0 | 0.00 | 0.00 | 0.00 | 88 | 1011.6 |
| 20260507105901 | 27 | 281 | 0.0 | 0.0 | 0.00 | 0.00 | 0.00 | 89 | 1011.1 |
| 20260507105400 | 27 | 281 | 0.0 | 0.0 | 0.00 | 0.00 | 0.00 | 89 | 1011.2 |
| 20260507104900 | 27 | 281 | 0.0 | 0.0 | 0.00 | 0.00 | 0.00 | 89 | 1011.3 |
| 20260507104559 | 27 | 0 | 0.0 | 0.0 | 0.00 | 0.00 | 0.00 | 88 | 1011.7 |
| 20260507104403 | 27 | 281 | 0.0 | 1.6 | 0.00 | 0.00 | 0.00 | 89 | 1011.3 |
| 20260507103903 | 27 | 281 | 0.0 | 1.6 | 0.00 | 0.00 | 0.00 | 88 | 1011.2 |
| 20260507103625 | 27 | 33 | 0.0 | 0.0 | 0.00 | 0.00 | 0.00 | 88 | 1010.9 |
| 20260507103049 | 27 | 0 | 0.0 | 0.0 | 0.00 | 0.00 | 0.00 | 88 | 1011.0 |
| 20260507102902 | 27 | 33 | 0.0 | 0.0 | 0.00 | 0.00 | 0.00 | 88 | 1010.7 |
| 20260507102402 | 27 | 33 | 0.0 | 0.0 | 0.00 | 0.00 | 0.00 | 88 | 1011.6 |
| 20260507101902 | 27 | 33 | 0.0 | 0.0 | 0.00 | 0.00 | 0.00 | 88 | 1011.7 |
| 20260507101552 | 27 | 0 | 0.0 | 0.0 | 0.00 | 0.00 | 0.00 | 88 | 1011.8 |
| 20260507101402 | 27 | 33 | 0.0 | 0.0 | 0.00 | 0.00 | 0.00 | 88 | 1011.8 |
| 20260507100854 | 27 | 33 | 0.0 | 0.0 | 0.00 | 0.00 | 0.00 | 88 | 1012.0 |
| 20260507100342 | 27 | 33 | 0.0 | 0.0 | 0.00 | 0.00 | 0.00 | 88 | 1011.6 |
| 20260507100056 | 27 | 0 | 0.0 | 0.0 | 0.00 | 0.00 | 0.00 | 88 | 1011.8 |
| 20260507095839 | 27 | 33 | 0.0 | 0.0 | 0.00 | 0.00 | 0.00 | 88 | 1011.7 |
| 20260507095601 | 27 | 33 | 0.0 | 0.0 | 0.00 | 0.00 | 0.00 | 88 | 1011.7 |
| 20260507094838 | 27 | 33 | 0.0 | 0.0 | 0.00 | 0.00 | 0.00 | 88 | 1011.0 |
| 20260507094555 | 27 | 0 | 0.0 | 0.0 | 0.00 | 0.00 | 0.00 | 88 | 1011.1 |
| 20260507094331 | 27 | 33 | 0.0 | 0.0 | 0.00 | 0.00 | 0.00 | 88 | 1010.7 |
| 20260507093830 | 27 | 33 | 0.0 | 0.0 | 0.00 | 0.00 | 0.00 | 88 | 1010.9 |
| 20260507093545 | 27 | 33 | 0.0 | 0.0 | 0.00 | 0.00 | 0.00 | 88 | 1011.2 |
| 20260507093050 | 27 | 0 | 0.0 | 0.0 | 0.00 | 0.00 | 0.00 | 87 | 1011.5 |
| 20260507092813 | 27 | 33 | 0.0 | 0.0 | 0.00 | 0.00 | 0.00 | 88 | 1011.2 |
| 20260507092311 | 27 | 33 | 0.0 | 0.0 | 0.00 | 0.00 | 0.00 | 88 | 1010.9 |
| 20260507091811 | 27 | 33 | 0.0 | 0.0 | 0.00 | 0.00 | 0.00 | 87 | 1010.8 |
| 20260507091550 | 27 | 0 | 0.0 | 0.0 | 0.00 | 0.00 | 0.00 | 87 | 1011.1 |
| 20260507091303 | 27 | 33 | 0.0 | 1.6 | 0.00 | 0.00 | 0.00 | 87 | 1010.8 |
| 20260507091029 | 27 | 33 | 0.0 | 1.6 | 0.00 | 0.00 | 0.00 | 87 | 1010.9 |
| 20260507090302 | 27 | 297 | 0.0 | 1.6 | 0.00 | 0.00 | 0.00 | 87 | 1011.1 |
| 20260507090047 | 27 | 297 | 0.0 | 0.0 | 0.00 | 0.00 | 0.00 | 86 | 1011.4 |
| 20260507085802 | 27 | 216 | 0.0 | 0.0 | 0.00 | 0.00 | 0.00 | 86 | 1011.1 |
| 20260507085524 | 27 | 216 | 0.0 | 0.0 | 0.00 | 0.00 | 0.00 | 86 | 1011.1 |